EW2295 Weather Reports


time (UTC)temp
C
wind
direction
speed
KPH
gust
KPH
rain 1hr
cm
rain 24hr
cm
rain mn
cm
humidity
%
barometer
mb
20260905042545 13 0 0.0 8.0 0.00 0.28 0.00 96 1018.3
20260905042041 13 0 0.0 8.0 0.00 0.28 0.00 96 1018.2
20260905041607 13 0 0.0 6.4 0.00 0.28 0.00 96 1018.1
20260905041044 12 0 0.0 6.4 0.00 0.28 0.00 96 1018.0
20260905040541 12 0 0.0 6.4 0.00 0.28 0.00 96 1018.0
20260905040106 12 0 0.0 4.8 0.00 0.28 0.00 96 1018.0
20260905035547 12 0 0.0 4.8 0.00 0.28 0.00 96 1018.1
20260905035046 12 0 0.0 0.0 0.00 0.28 0.00 96 1018.0
20260905034616 12 0 0.0 8.0 0.00 0.28 0.00 96 1018.1
20260905034046 12 0 0.0 8.0 0.00 0.28 0.00 96 1018.1
20260905033545 12 0 0.0 8.0 0.00 0.28 0.00 96 1018.0
20260905033116 12 0 0.0 0.0 0.00 0.28 0.00 96 1018.0
20260905032547 12 0 0.0 0.0 0.00 0.28 0.00 96 1018.0
20260905032046 12 0 0.0 0.0 0.00 0.28 0.00 96 1018.0
20260905031614 12 0 0.0 0.0 0.00 0.28 0.00 96 1018.0
20260905031048 12 0 0.0 0.0 0.00 0.28 0.00 96 1018.1
20260905030546 12 0 0.0 0.0 0.00 0.28 0.00 96 1018.0
20260905030106 12 0 0.0 0.0 0.00 0.28 0.00 96 1018.0
20260905025545 12 0 0.0 0.0 0.00 0.28 0.00 96 1018.0
20260905025049 12 0 0.0 0.0 0.00 0.28 0.00 96 1018.0
20260905024605 12 0 0.0 0.0 0.00 0.28 0.00 96 1018.0
20260905024045 12 0 0.0 0.0 0.00 0.28 0.00 96 1018.0
20260905023548 12 0 0.0 0.0 0.00 0.28 0.00 96 1018.0
20260905023107 12 0 0.0 0.0 0.00 0.28 0.00 96 1017.9
20260905022550 12 0 0.0 0.0 0.00 0.28 0.00 96 1017.8
20260905022046 12 0 0.0 0.0 0.00 0.28 0.00 96 1017.9
20260905021604 12 0 0.0 0.0 0.00 0.28 0.00 96 1017.8
20260905021046 12 0 0.0 0.0 0.00 0.28 0.00 96 1017.8
20260905020546 12 0 0.0 0.0 0.00 0.28 0.00 96 1017.7
20260905020105 12 0 0.0 0.0 0.00 0.28 0.00 96 1017.8
20260905015546 12 0 0.0 0.0 0.00 0.28 0.00 96 1017.6
20260905015046 12 0 0.0 0.0 0.00 0.28 0.00 96 1017.6
20260905014614 12 0 0.0 0.0 0.00 0.28 0.00 96 1017.6
20260905014046 12 0 0.0 0.0 0.00 0.28 0.00 96 1017.5
20260905013547 12 0 0.0 0.0 0.00 0.28 0.00 96 1017.5
20260905013120 12 0 0.0 0.0 0.00 0.28 0.00 96 1017.6
20260905012546 12 0 0.0 0.0 0.00 0.28 0.00 96 1017.6
20260905012045 12 0 0.0 0.0 0.00 0.28 0.00 96 1017.6
20260905011601 12 0 0.0 0.0 0.00 0.28 0.00 96 1017.6
20260905011046 12 0 0.0 0.0 0.00 0.28 0.00 96 1017.6
20260905010547 12 0 0.0 0.0 0.00 0.28 0.00 96 1017.6
20260905010100 12 0 0.0 0.0 0.00 0.28 0.00 96 1017.6
20260905005546 12 0 0.0 0.0 0.00 0.28 0.00 96 1017.5
20260905005048 12 0 0.0 0.0 0.00 0.28 0.00 96 1017.6
20260905004711 12 0 0.0 0.0 0.00 0.28 0.00 96 1017.6
20260905004046 12 0 0.0 0.0 0.00 0.28 0.00 96 1017.6
20260905003546 13 0 0.0 0.0 0.00 0.28 0.00 96 1017.7
20260905003101 13 0 0.0 0.0 0.00 0.28 0.00 96 1017.7
20260905002545 13 0 0.0 0.0 0.00 0.28 0.00 96 1017.6
20260905002050 13 0 0.0 0.0 0.00 0.28 0.00 96 1017.6
20260905001609 13 0 0.0 0.0 0.00 0.28 0.00 96 1017.8
20260905001046 13 0 0.0 0.0 0.00 0.28 0.00 96 1017.6
20260905000546 13 0 0.0 0.0 0.00 0.28 0.00 96 1017.6
20260905000107 13 0 0.0 0.0 0.00 0.28 0.00 96 1017.6
20260904235546 13 0 0.0 0.0 0.00 0.28 0.00 96 1017.7
20260904235047 13 0 0.0 0.0 0.00 0.28 0.00 96 1017.5
20260904234604 13 0 0.0 0.0 0.00 0.28 0.00 96 1017.5
20260904234046 13 0 0.0 0.0 0.00 0.28 0.00 96 1017.6
20260904233546 13 0 0.0 0.0 0.00 0.28 0.00 95 1017.5
20260904233105 13 0 0.0 0.0 0.00 0.28 0.00 96 1017.4
20260904232546 13 0 0.0 0.0 0.00 0.28 0.00 95 1017.4
20260904232048 13 0 0.0 0.0 0.00 0.28 0.00 95 1017.4
20260904231606 13 0 0.0 0.0 0.00 0.28 0.00 95 1017.3
20260904231046 14 0 0.0 0.0 0.00 0.28 0.00 95 1017.3
20260904230546 14 0 0.0 0.0 0.00 0.28 0.00 95 1017.3
20260904230110 14 0 0.0 0.0 0.00 0.28 0.00 95 1017.3
20260904225547 14 0 0.0 0.0 0.00 0.28 0.00 95 1017.2
20260904225050 14 0 0.0 0.0 0.00 0.28 0.00 95 1017.2
20260904224605 15 0 0.0 0.0 0.00 0.28 0.00 95 1017.2
20260904224046 15 0 0.0 0.0 0.00 0.28 0.00 95 1017.2
20260904223545 15 0 0.0 0.0 0.00 0.28 0.00 95 1017.1
20260904223109 15 0 0.0 0.0 0.00 0.28 0.00 95 1017.1
20260904222546 15 0 0.0 0.0 0.00 0.28 0.00 95 1017.0
20260904222045 15 0 0.0 0.0 0.00 0.28 0.00 95 1017.0
20260904221606 15 0 0.0 1.6 0.00 0.28 0.00 95 1016.9
20260904221046 15 0 0.0 1.6 0.00 0.28 0.00 95 1016.8
20260904220547 15 0 0.0 1.6 0.00 0.28 0.00 95 1016.8
20260904220107 15 0 0.0 1.6 0.00 0.28 0.00 95 1016.8
20260904215546 15 0 0.0 1.6 0.00 0.28 0.28 95 1016.7
20260904215046 15 0 0.0 0.0 0.00 0.28 0.28 95 1016.6
20260904214613 15 0 0.0 0.0 0.00 0.28 0.28 95 1016.7
20260904214046 15 0 0.0 0.0 0.00 0.28 0.28 95 1016.5
20260904213546 15 0 0.0 0.0 0.00 0.28 0.28 95 1016.4
20260904213108 15 0 0.0 6.4 0.00 0.28 0.28 95 1016.5
20260904212546 15 0 0.0 6.4 0.00 0.28 0.28 95 1016.3
20260904212042 15 0 0.0 0.0 0.00 0.28 0.28 95 1016.4
20260904211602 15 0 0.0 9.7 0.00 0.28 0.28 95 1016.3
20260904211046 15 0 0.0 9.7 0.00 0.28 0.28 95 1016.2
20260904210550 15 0 0.0 9.7 0.00 0.28 0.28 95 1016.1
20260904210108 15 0 0.0 14.5 0.00 0.28 0.28 95 1016.1
20260904205549 15 0 1.6 14.5 0.00 0.28 0.28 95 1016.0
20260904205045 15 0 1.6 14.5 0.00 0.28 0.28 95 1016.1
20260904204609 15 0 0.0 14.5 0.00 0.28 0.28 95 1016.1
20260904204048 15 0 0.0 14.5 0.00 0.28 0.28 95 1016.0
20260904203546 15 0 0.0 14.5 0.00 0.28 0.28 95 1015.9
20260904203104 15 0 0.0 17.7 0.00 0.28 0.28 95 1015.8
20260904202545 16 0 1.6 17.7 0.00 0.28 0.28 95 1015.8
20260904202046 16 241 0.0 11.3 0.00 0.28 0.28 95 1015.9
20260904201601 16 0 0.0 12.9 0.00 0.28 0.28 95 1016.0
20260904201046 16 0 0.0 14.5 0.00 0.28 0.28 95 1016.0
20260904200547 15 0 0.0 14.5 0.00 0.28 0.28 95 1015.8
20260904200120 16 0 0.0 16.1 0.00 0.28 0.28 95 1015.9
20260904195549 16 0 0.0 16.1 0.00 0.28 0.28 95 1015.8
20260904195045 16 0 3.2 14.5 0.00 0.28 0.28 95 1015.9
20260904194609 16 0 0.0 11.3 0.00 0.28 0.28 95 1015.7
20260904194046 16 0 0.0 11.3 0.00 0.28 0.28 95 1015.6
20260904193545 16 0 0.0 11.3 0.00 0.28 0.28 96 1015.6
20260904193106 16 0 0.0 8.0 0.00 0.28 0.28 95 1015.7
20260904192546 16 0 0.0 6.4 0.00 0.28 0.28 96 1015.5
20260904192048 16 0 0.0 11.3 0.00 0.28 0.28 95 1015.4
20260904191605 16 0 0.0 11.3 0.00 0.28 0.28 95 1015.1
20260904191046 16 0 1.6 16.1 0.00 0.28 0.28 95 1015.1
20260904190546 16 0 0.0 16.1 0.00 0.28 0.28 95 1015.1
20260904190106 16 0 1.6 12.9 0.00 0.28 0.28 95 1015.1
20260904185546 16 211 0.0 12.9 0.00 0.28 0.28 95 1015.0
20260904185046 16 0 0.0 16.1 0.00 0.28 0.28 95 1015.0
20260904184614 16 234 1.6 16.1 0.00 0.28 0.28 95 1014.7
20260904184045 16 223 1.6 14.5 0.00 0.28 0.28 96 1014.6
20260904183549 16 239 1.6 14.5 0.00 0.28 0.28 95 1014.5
20260904183056 16 0 0.0 14.5 0.00 0.28 0.28 95 1014.4
20260904182545 16 239 0.0 14.5 0.00 0.28 0.28 95 1014.2
20260904182046 16 0 3.2 12.9 0.00 0.28 0.28 95 1014.2
20260904181613 16 0 0.0 14.5 0.00 0.28 0.28 95 1014.0
20260904181045 16 0 0.0 14.5 0.00 0.28 0.28 95 1014.0
20260904180547 16 236 0.0 12.9 0.00 0.28 0.28 95 1013.9
20260904180100 16 0 0.0 17.7 0.00 0.28 0.28 95 1013.7
20260904175545 16 0 3.2 17.7 0.00 0.28 0.28 95 1013.8
20260904175045 16 0 3.2 17.7 0.00 0.28 0.28 95 1013.8
20260904174604 16 238 0.0 16.1 0.00 0.28 0.28 95 1013.8
20260904174046 16 0 1.6 16.1 0.00 0.28 0.28 95 1013.7
20260904173545 16 0 3.2 14.5 0.00 0.28 0.28 95 1013.6
20260904173101 16 0 1.6 16.1 0.00 0.28 0.28 95 1013.5
20260904172547 16 0 0.0 16.1 0.03 0.28 0.28 95 1013.5
20260904172048 16 243 1.6 14.5 0.10 0.28 0.28 95 1013.6
20260904171619 16 239 0.0 16.1 0.13 0.28 0.28 95 1013.7
20260904171046 16 0 0.0 16.1 0.13 0.28 0.28 95 1013.6
20260904170545 16 0 0.0 16.1 0.13 0.28 0.28 95 1013.6
20260904170100 16 250 1.6 16.1 0.13 0.28 0.28 95 1013.5
20260904165547 16 214 4.8 16.1 0.13 0.28 0.28 95 1013.6
20260904165046 16 0 0.0 24.1 0.13 0.28 0.28 95 1013.5
20260904164618 16 0 3.2 24.1 0.13 0.28 0.28 95 1013.5
20260904164046 16 0 0.0 17.7 0.13 0.28 0.28 95 1013.4
20260904163546 16 237 3.2 17.7 0.15 0.28 0.28 95 1013.2
20260904163101 16 246 0.0 20.9 0.13 0.28 0.28 95 1013.4
20260904162547 16 266 3.2 20.9 0.13 0.25 0.25 94 1013.6
20260904162045 16 217 0.0 22.5 0.05 0.18 0.18 94 1013.4
20260904161610 16 252 1.6 22.5 0.03 0.15 0.15 94 1013.4
20260904161045 16 277 1.6 17.7 0.05 0.15 0.15 94 1013.4
20260904160546 16 0 0.0 20.9 0.08 0.15 0.15 94 1013.3
20260904160108 16 217 1.6 29.0 0.15 0.15 0.15 94 1013.3
20260904155544 17 272 4.8 29.0 0.15 0.15 0.15 94 1013.3
20260904155045 17 0 3.2 22.5 0.15 0.15 0.15 94 1013.3
20260904154604 17 217 3.2 22.5 0.15 0.15 0.15 94 1013.2
20260904154046 17 309 1.6 25.7 0.15 0.15 0.15 94 1013.4
20260904153545 17 252 6.4 30.6 0.13 0.13 0.13 93 1013.4
20260904153112 17 238 3.2 30.6 0.13 0.13 0.13 92 1013.4
20260904152545 17 0 8.0 30.6 0.10 0.10 0.10 92 1013.2
20260904152043 17 253 3.2 40.2 0.10 0.10 0.10 92 1013.0
20260904151559 17 0 4.8 40.2 0.10 0.10 0.10 91 1012.7
20260904151045 18 266 3.2 35.4 0.08 0.08 0.08 89 1012.7
20260904150546 18 0 4.8 35.4 0.05 0.05 0.05 87 1012.6
20260904150100 20 340 6.4 29.0 0.00 0.00 0.00 85 1012.4
20260904145546 21 219 3.2 32.2 0.00 0.00 0.00 84 1012.1
20260904145046 21 227 3.2 45.1 0.00 0.00 0.00 82 1011.9
20260904144606 22 258 12.9 45.1 0.00 0.00 0.00 78 1011.7
20260904144045 22 255 8.0 33.8 0.00 0.00 0.00 76 1011.7
20260904143545 22 202 6.4 37.0 0.00 0.00 0.00 76 1011.3
20260904143107 22 248 17.7 37.0 0.00 0.00 0.00 75 1011.4
20260904142545 22 0 3.2 37.0 0.00 0.00 0.00 75 1011.3
20260904142046 22 0 8.0 38.6 0.00 0.00 0.00 75 1011.4
20260904141558 22 205 17.7 38.6 0.00 0.00 0.00 75 1011.4
20260904141045 23 214 11.3 37.0 0.00 0.00 0.00 75 1011.6
20260904140543 22 223 11.3 41.8 0.00 0.00 0.00 76 1011.4
20260904140105 22 0 12.9 45.1 0.00 0.00 0.00 76 1011.4
20260904135546 22 221 16.1 56.3 0.00 0.00 0.00 75 1011.7
20260904135045 23 248 19.3 56.3 0.00 0.00 0.00 74 1011.6
20260904134606 23 248 17.7 48.3 0.00 0.00 0.00 73 1011.4
20260904134050 23 247 14.5 41.8 0.00 0.00 0.00 72 1011.4
20260904133544 23 238 12.9 41.8 0.00 0.00 0.00 73 1011.3
20260904133116 23 245 17.7 40.2 0.00 0.00 0.00 72 1011.4
20260904132546 23 251 8.0 33.8 0.00 0.00 0.00 72 1011.5
20260904132045 23 219 8.0 35.4 0.00 0.00 0.00 74 1011.4
20260904131607 22 212 3.2 35.4 0.00 0.00 0.00 73 1011.4
20260904131043 22 0 8.0 49.9 0.00 0.00 0.00 73 1011.3
20260904130544 23 245 17.7 49.9 0.00 0.00 0.00 72 1011.4
20260904130108 23 243 12.9 37.0 0.00 0.00 0.00 70 1011.4
20260904125545 23 250 4.8 35.4 0.00 0.00 0.00 71 1011.3
20260904125045 23 225 12.9 53.1 0.00 0.00 0.00 71 1011.3
20260904124605 23 287 20.9 53.1 0.00 0.00 0.00 69 1011.3
20260904124045 23 220 14.5 37.0 0.00 0.00 0.00 68 1011.2
20260904123546 24 246 4.8 40.2 0.00 0.00 0.00 68 1011.4
20260904123059 24 244 9.7 40.2 0.00 0.00 0.00 67 1011.2
20260904122546 24 286 11.3 35.4 0.00 0.00 0.00 69 1011.4
20260904122046 23 0 4.8 35.4 0.00 0.00 0.00 70 1011.4
20260904121605 23 0 12.9 38.6 0.00 0.00 0.00 68 1011.4
20260904121045 23 238 19.3 40.2 0.00 0.00 0.00 69 1011.4
20260904120546 23 248 14.5 40.2 0.00 0.00 0.00 71 1011.5
20260904120104 23 225 17.7 46.7 0.00 0.00 0.00 70 1011.6
20260904115546 23 0 19.3 46.7 0.00 0.00 0.00 71 1011.5
20260904115046 23 220 12.9 38.6 0.00 0.00 0.00 71 1011.6
20260904114608 23 286 8.0 43.5 0.00 0.00 0.00 72 1011.8
20260904114044 22 236 12.9 43.5 0.00 0.00 0.00 73 1011.7
20260904113546 22 243 16.1 43.5 0.00 0.00 0.00 73 1011.8
20260904113106 22 214 11.3 37.0 0.00 0.00 0.00 74 1011.9
20260904112546 22 250 6.4 37.0 0.00 0.00 0.00 74 1011.9
20260904112043 22 249 9.7 41.8 0.00 0.00 0.00 74 1011.8
20260904111604 22 0 17.7 41.8 0.00 0.00 0.00 73 1012.0
20260904111045 22 246 12.9 41.8 0.00 0.00 0.00 73 1012.0
20260904110545 22 218 17.7 41.8 0.00 0.00 0.00 73 1012.0
20260904110108 22 242 6.4 38.6 0.00 0.00 0.00 74 1012.2
20260904105547 22 250 12.9 38.6 0.00 0.00 0.00 74 1012.0
20260904105044 22 249 12.9 38.6 0.00 0.00 0.00 74 1012.1
20260904104617 22 231 6.4 30.6 0.00 0.00 0.00 74 1012.1
20260904104043 22 248 11.3 30.6 0.00 0.00 0.00 74 1012.1
20260904103543 22 228 8.0 37.0 0.00 0.00 0.00 75 1012.1
20260904103103 22 231 11.3 38.6 0.00 0.00 0.00 75 1012.1
20260904102548 22 216 12.9 40.2 0.00 0.00 0.00 74 1012.0
20260904102046 22 185 19.3 40.2 0.00 0.00 0.00 74 1012.0
20260904101605 22 217 11.3 49.9 0.00 0.00 0.00 74 1011.9
20260904101045 22 223 16.1 49.9 0.00 0.00 0.00 75 1011.9
20260904100545 22 205 14.5 33.8 0.00 0.00 0.00 75 1011.9
20260904100119 22 261 3.2 51.5 0.00 0.00 0.00 76 1011.9
20260904095545 22 212 9.7 51.5 0.00 0.13 0.00 75 1012.0
20260904095046 22 227 16.1 51.5 0.00 0.13 0.00 75 1012.2
20260904094617 22 178 24.1 46.7 0.00 0.13 0.00 74 1012.0
20260904094044 23 199 12.9 45.1 0.00 0.13 0.00 74 1012.1
20260904093544 23 211 12.9 45.1 0.00 0.13 0.00 74 1012.1
20260904093107 23 232 19.3 45.1 0.00 0.13 0.00 75 1012.0
20260904092543 22 200 22.5 40.2 0.00 0.13 0.00 76 1012.0
20260904092045 22 0 11.3 33.8 0.00 0.13 0.00 77 1012.2
20260904091604 22 188 9.7 40.2 0.00 0.13 0.00 76 1012.2
20260904091044 22 227 11.3 40.2 0.00 0.13 0.00 77 1012.2
20260904090545 22 223 12.9 38.6 0.00 0.13 0.00 78 1012.4
20260904090104 22 246 8.0 35.4 0.00 0.13 0.00 78 1012.5
20260904085544 22 0 11.3 38.6 0.00 0.46 0.00 79 1012.5
20260904085045 22 227 8.0 38.6 0.00 0.46 0.00 79 1012.7
20260904084604 21 232 11.3 37.0 0.00 0.46 0.00 80 1012.8
20260904084045 21 238 3.2 27.4 0.00 0.46 0.00 81 1012.7
20260904083543 21 244 8.0 25.7 0.00 0.46 0.00 81 1012.8
20260904083106 21 223 6.4 29.0 0.00 0.46 0.00 81 1012.8
20260904082545 21 207 6.4 29.0 0.00 0.46 0.00 81 1012.8
20260904082048 21 201 11.3 32.2 0.00 0.46 0.00 80 1012.9
20260904081604 21 258 12.9 32.2 0.00 0.46 0.00 80 1013.0
20260904081044 21 227 9.7 32.2 0.00 0.46 0.00 80 1013.0
20260904080545 21 240 6.4 32.2 0.00 0.46 0.00 80 1013.0
20260904080135 21 246 9.7 32.2 0.00 0.46 0.00 80 1012.9
20260904075544 21 250 8.0 30.6 0.00 0.46 0.00 80 1012.8
20260904075046 21 0 3.2 30.6 0.00 0.46 0.00 80 1012.9
20260904074610 21 241 14.5 37.0 0.00 0.46 0.00 80 1012.9
20260904074044 21 247 8.0 37.0 0.00 0.46 0.00 80 1012.9
20260904073544 21 209 11.3 37.0 0.00 0.46 0.00 80 1013.0
20260904073105 21 250 14.5 35.4 0.00 0.46 0.00 81 1013.0
20260904072545 21 219 16.1 35.4 0.00 0.46 0.00 82 1013.2
20260904072045 21 240 9.7 35.4 0.00 0.46 0.00 81 1013.3
20260904071606 21 231 14.5 35.4 0.00 0.46 0.00 82 1013.3
20260904071045 21 246 14.5 33.8 0.00 0.46 0.00 82 1013.3
20260904070545 21 256 16.1 43.5 0.00 0.46 0.00 82 1013.5
20260904070101 20 0 12.9 43.5 0.00 0.46 0.00 83 1013.5
20260904065543 20 232 8.0 33.8 0.00 0.46 0.00 83 1013.6
20260904065045 20 224 11.3 33.8 0.00 0.46 0.00 83 1013.5
20260904064605 20 238 6.4 30.6 0.00 0.46 0.00 83 1013.6
20260904064046 20 235 9.7 27.4 0.00 0.46 0.00 84 1013.6
20260904063544 20 248 8.0 30.6 0.00 0.46 0.00 84 1013.4
20260904063105 20 224 6.4 30.6 0.00 0.46 0.00 85 1013.5
20260904062545 20 227 9.7 27.4 0.00 0.46 0.00 85 1013.6
20260904062043 20 0 9.7 27.4 0.00 0.46 0.00 85 1013.6
20260904061603 20 225 9.7 27.4 0.00 0.46 0.00 86 1013.8
20260904061045 20 194 8.0 27.4 0.00 0.46 0.00 85 1013.8
20260904060545 20 245 9.7 27.4 0.00 0.46 0.00 85 1013.9
20260904060121 20 251 8.0 24.1 0.00 0.46 0.00 86 1013.9
20260904055543 20 232 3.2 25.7 0.00 0.46 0.00 86 1013.9
20260904055044 20 195 8.0 25.7 0.00 0.46 0.00 86 1014.0
20260904054601 20 221 6.4 27.4 0.00 0.46 0.00 86 1014.1
20260904054044 20 0 4.8 29.0 0.00 0.46 0.00 86 1014.2
20260904053542 20 0 4.8 29.0 0.00 0.46 0.00 86 1014.2
20260904053145 20 242 8.0 27.4 0.00 0.46 0.00 86 1014.2
20260904052546 20 243 4.8 29.0 0.00 0.46 0.00 86 1014.3
20260904052046 20 0 1.6 29.0 0.00 0.46 0.00 86 1014.3
20260904051614 20 0 4.8 29.0 0.00 0.46 0.00 87 1014.5
20260904051045 20 207 6.4 29.0 0.00 0.46 0.00 86 1014.3
20260904050544 20 0 9.7 29.0 0.00 0.46 0.00 86 1014.3
20260904050058 20 263 4.8 37.0 0.00 0.46 0.00 86 1014.4
20260904045542 20 283 9.7 37.0 0.00 0.46 0.00 86 1014.5
20260904045042 20 220 8.0 29.0 0.00 0.46 0.00 87 1014.5
20260904044611 20 239 6.4 27.4 0.00 0.46 0.00 87 1014.5
20260904044046 20 0 8.0 27.4 0.00 0.46 0.00 87 1014.4
20260904043545 20 258 3.2 24.1 0.00 0.46 0.00 87 1014.4
20260904043114 20 0 6.4 24.1 0.00 0.46 0.00 87 1014.3